www.pogodaiklimat.ru

Погода и климат >> Архив погоды >> Россия >> Краснодарский край >> Краснодар


АРХИВ ПОГОДЫ в Краснодаре

Время (UTC), дата Ветер
(напр.,м/с)
 
Видим.   Явления Облачность Т
(С)
Тd
(С)
f
(%)
Тe
(С)
Тes
(С)
Комфортность P
(гПа)
Po
(гПа)
Тmin
(С)
Tmax
(С)
R
(мм)
R24
(мм)
S
(см)
00 14.02 З 2 4000 м дымка {ливн. осадки} 10/10 300 м
[St]
+1.2 -0.5 88 -2 -2 по сезону 1020.6 1016.8
03 14.02 В 2 10 км 10/10 300 м
[St]
+0.7 -0.8 90 -3 -3 по сезону 1021.4 1017.6 +0.6 0.8
06 14.02 штиль 0 4000 м дымка 10/10 300 м
[St]
+0.7 -1.1 88 -1 -1 по сезону 1022.4 1018.6 +0.2
09 14.02 СВ 3 4000 м 10/10 300 м
[St]
+2.7 -0.8 78 -1 -1 по сезону 1023.4 1019.1
12 14.02 В 5 10 км 10/10 300 м
[St]
+5.0 +1.9 80 0 0 по сезону 1022.2 1018.0
15 14.02 СВ 3 10 км 9/9 300 м
[Sc diur, vesp]
+4.8 +2.2 83 +1 +1 по сезону 1022.1 1017.9 +5.8
18 14.02 СВ 5 10 км 3/3 1000 м
[Sc]
+4.1 +2.0 86 -1 -1 по сезону 1021.3 1017.0
21 14.02 СВ 4 10 км 3/3 1000 м
[Sc]
+2.5 +0.7 88 -2 -2 по сезону 1021.1 1016.8
00 15.02 СВ 3 10 км 3/3 1500 м
[Sc]
+0.8 -0.7 90 -4 -4 по сезону 1021.5 1017.2
03 15.02 СВ 4 10 км 3/3 300 м
[St]
+0.9 -0.8 88 -4 -4 по сезону 1021.8 1017.5 +0.7
06 15.02 СВ 5 10 км 10/5 1000 м
[Sc Ac und]
+1.5 -0.5 87 -4 -4 по сезону 1023.0 1018.7
09 15.02 В 5 10 км 9/6 1000 м
[Cb cap Ac trans]
+5.2 +1.3 76 +1 +1 по сезону 1023.7 1019.4
12 15.02 СВ 5 10 км 9/5 1000 м
[Sc Ac trans]
+8.1 +2.9 70 +5 +5 по сезону 1023.3 1019.1
15 15.02 СВ 3 10 км 3/0
[Ac trans]
+7.1 +2.8 74 +4 +4 по сезону 1023.7 1019.5 +8.9
18 15.02 В 4 10 км ясно +3.9 +1.1 82 -1 -1 по сезону 1024.6 1020.3
21 15.02 СВ 2 10 км ясно +1.9 -0.3 85 -1 -1 по сезону 1025.1 1020.8
00 16.02 С 1 10 км ясно +0.5 -1.2 88 -1 -1 по сезону 1025.3 1021.0
03 16.02 СЗ 2 10 км ясно +1.1 -0.8 87 -2 -2 по сезону 1025.4 1021.0 +0.3
06 16.02 С 2 10 км 6/0
[Ac trans]
+1.1 -0.8 87 -2 -1 по сезону 1025.8 1021.4
09 16.02 С 3 10 км 9/8 1000 м
[Cb cap Ac trans]
+5.1 +1.4 77 +2 +3 по сезону 1025.6 1021.3
12 16.02 СВ 2 10 км 9/9 1000 м
[Cb cap Ac trans]
+8.3 +3.0 69 +7 +7 тепло 1024.5 1020.3
15 16.02 С 2 10 км 8/0
[Ac trans]
+7.8 +3.1 72 +6 +6 тепло 1024.1 1019.8 +9.3
18 16.02 С 2 10 км ясно +6.1 +2.6 78 +4 +4 тепло 1023.8 1019.6
21 16.02 СВ 3 10 км ясно +3.7 +0.6 80 0 0 по сезону 1023.4 1019.1
00 17.02 10 км ясно +2.7 +0.1 83 1022.8 1018.5
03 17.02 СВ 2 10 км 3/0
[Ac trans]
+1.7 -0.2 87 -2 -2 по сезону 1021.8 1017.5 +1.7
06 17.02 С 1 10 км 9/4 1500 м
[Cb cap Ac As Cc]
+3.4 +0.7 82 +2 +3 тепло 1021.8 1017.5 +1.5
09 17.02 СЗ 2 10 км 9/0
[Ac As Cc]
+7.0 +1.4 68 +5 +9 тепло 1021.0 1016.8
12 17.02 С 3 10 км 10/0
[Ac trans Ci sp]
+9.5 +2.6 62 +7 +9 тепло 1019.3 1015.1
15 17.02 Ю 1 10 км 9/3
[Sc Ac As Ci fib]
+7.4 +2.7 72 +7 +7 тепло 1019.0 1014.8 +9.9
18 17.02 З 2 10 км 6/0
[As trans]
+5.3 +2.8 84 +3 +3 тепло 1019.1 1014.9
21 17.02 СЗ 3 4000 м 10/10 600 м
[St]
+3.3 +2.3 93 -1 -1 по сезону 1019.7 1015.4
00 18.02 З 2 2000 м дымка 10/10 600 м
[St]
+3.5 +2.5 93 0 0 по сезону 1019.7 1015.4
03 18.02 З 3 1000 м слабая морось 10/10 200 м
[St]
+2.8 +1.9 94 -1 -1 по сезону 1020.4 1016.2 +2.8
06 18.02 СЗ 2 4000 м дымка {морось} 10/10 200 м
[St]
+2.4 +1.3 92 -1 -1 по сезону 1020.9 1016.6 +2.4
09 18.02 СЗ 3 4000 м в посл. час морось 10/10 200 м
[St]
+2.8 +0.6 85 -1 -1 по сезону 1021.4 1017.1
12 18.02 З 2 10 км 10/10 300 м
[St]
+3.2 +0.1 80 0 0 по сезону 1021.2 1016.9
15 18.02 СЗ 3 10 км 10/10 300 м
[St]
+3.2 -0.7 76 -1 -1 по сезону 1021.7 1017.4 +3.7 0.0
18 18.02 СЗ 1 10 км 10/10 300 м
[St]
+2.5 -1.4 75 +1 +1 по сезону 1022.1 1017.8
21 18.02 С 2 10 км 10/10 600 м
[St]
+2.3 -0.8 80 -1 -1 по сезону 1021.6 1017.3
00 19.02 С 2 10 км 10/10 300 м
[St]
+1.8 -1.3 80 -1 -1 по сезону 1021.1 1016.8
03 19.02 С 2 10 км 10/10 300 м
[St]
+1.5 -1.5 80 -2 -2 по сезону 1021.1 1016.8 +1.5
06 19.02 З 2 4000 м дымка 10/10 300 м
[St]
+1.9 -1.2 80 -1 -1 по сезону 1021.8 1017.5 +1.5
09 19.02 З 2 4000 м дымка 10/10 300 м
[St]
+3.3 -1.7 70 +1 +1 по сезону 1021.8 1017.5
12 19.02 СЗ 3 4000 м дымка 10/10 300 м
[St]
+2.8 -1.6 73 -1 -1 прохладно 1022.0 1017.7
15 19.02 СВ 1 10 км 10/10 300 м
[St]
+3.1 +0.2 81 +2 +2 по сезону 1021.9 1018.2 +3.6
18 19.02 СВ 1 10 км 10/10 600 м
[St]
+2.5 +0.6 87 +1 +1 по сезону 1022.2 1018.5
21 19.02 С 1 10 км 10/10 600 м
[St]
+2.3 +0.4 87 +1 -74 по сезону 1021.4 1017.7
00 20.02 С 1 10 км 10/10
[St]
+1.7 -2.7 73 0 0 по сезону 1021.0 1017.3
03 20.02 СВ 4 4000 м дымка 10/10 300 м
[St]
+1.0 -0.7 88 -4 -4 по сезону 1020.8 1017.1 +0.3
06 20.02 СВ 1 10 км 10/10 300 м
[St]
+1.3 -2.2 77 -0 -0 по сезону 1021.8 1018.1 +0.3
09 20.02 СВ 5 10 км 10/10 300 м
[St Ac As]
+2.8 -3.4 64 -2 -2 по сезону 1021.5 1017.8
12 20.02 СВ 5 10 км 10/10 600 м
[Sc Ac As]
+3.5 -3.6 60 -1 -1 прохладно 1020.8 1017.1
15 20.02 СВ 3 10 км 10/10 600 м
[Sc]
+3.1 -2.7 66 -1 -1 по сезону 1021.0 1017.3 +3.9
18 20.02 СВ 5 10 км 10/10 600 м
[Sc]
+2.4 -2.2 72 -3 -3 по сезону 1021.1 1017.4
21 20.02 СВ 5 10 км 10/10 600 м
[Sc]
+2.2 +0.3 87 -3 -3 по сезону 1020.5 1016.8

 

Местоположение метеостанции Краснодар (Краснодарский край, Россия): широта 45.05 долгота 39.03 высота над уровнем моря 29 м.

В архиве по умолчанию представлена погода в Краснодаре за последнюю неделю. Архивные данные за месяц целиком и за предыдущие месяцы, начиная с января 2011 года, Вы можете получить, выбрав интересующий диапазон дат из раскрывающегося списка и нажав кнопку "Ввод!".

Внимание! Время в таблицах - всемирное. Для получения местного времени необходимо прибавить поправку, которая в Краснодаре равна 3 ч.

Смотрите также архив погоды в соседних городах и на ближайших метеорологических станциях:

Погода в Горячем Ключе (Краснодарский край, Россия) (47 км)
Погода в Усть-Лабинске (Краснодарский край, Россия) (58 км)
Погода в Кореновске (Краснодарский край, Россия) (59 км)
Погода в Тимашевске (Краснодарский край, Россия) (65 км)
Погода в Славянске-на-Кубани (Краснодарский край, Россия) (76 км)
Погода в Белореченске (Краснодарский край, Россия) (76 км)
Погода в Крымске (Краснодарский край, Россия) (82 км)
Погода в Джубге (Краснодарский край, Россия) (84 км)
Погода в Горном (Краснодарский край, Россия) (88 км)
Погода в Геленджике (Краснодарский край, Россия) (92 км)

Пояснения к столбцам:

Ветер - указаны скорость ветра в м/с - средняя за 10 мин, порывы в срок и между сроками (в фигурных скобках) и направление, откуда дует ветер: С - северный, СВ - северо-восточный, В - восточный, ЮВ - юго-восточный, Ю - южный, ЮЗ - юго-западный, З - западный, СЗ - северо-западный.
Видимость - горизонтальная дальность видимости в метрах или километрах. При видимости от 1 до 10 км при отсутствии осадков обычно наблюдается дымка, при ухудшении видимости до 1 км и менее - туман. В сухую погоду видимость может ухудшаться дымом, пылью или мглою.
Явления - указаны атмосферные явления, наблюдавшиеся в срок или в последний час перед сроком; фигурными скобками обозначены явления, наблюдавшиеся между сроками (за 1-3 часа до срока); квадратными скобками обозначены град или гололедные отложения с указанием их диаметра в мм.
Облачность - указаны через наклонную черту общая и нижняя облачность в баллах и высота нижней границы облаков в метрах; квадратными скобками обозначены формы облаков: Ci - перистые, Cs - перисто-слоистые, Cc - перисто-кучевые, Ac - высококучевые, As - высокослоистые, Sc - слоисто-кучевые, Ns - слоисто-дождевые, Cu - кучевые, Cb - кучево-дождевые. Подробнее классификацию облаков см. в Атласе облаков (PDF).
T - Температура воздуха - температура, измеренная на высоте 2 м над землей.
Td - Температура точки росы - температура, при понижении до которой содержащийся в воздухе водяной пар достигнет насыщения.
f - Относительная влажность воздуха - влажноcть воздуха, измеренная на высоте 2 м над землей.
Te - Эффективная температура - температура, которую ощущает одетый по сезону человек в тени. Характеристика душности погоды. При расчете учитывается влияние влажности воздуха и скорости ветра на теплоощущения человека.
Tes - Эффективная температура на солнце - температура, которую ощущает человек, с поправкой на солнечный нагрев. Характеристика знойности погоды. Зависит от высоты солнца над горизонтом, облачности и скорости ветра. Ночью, в пасмурную погоду, а также при ветре 12 м/с и более поправка равна нулю.
P - Атмосферное давление - приведенное к уровню моря атмосферное давление.
Po - Атмосферное давление - измеренное на уровне метеостанции атмосферное давление.
Tmin - Минимальная температура - минимум температуры воздуха на высоте 2 м над землей.
Tmax - Максимальная температура - максимум температуры воздуха на высоте 2 м над землей.
R - Количество осадков - Количество выпавших осадков за период времени, мм. При наведении курсора мыши на число - период времени, за который выпало указанное количество осадков.
R24 - Количество осадков - Количество выпавших осадков за 24 часа, мм.
S - Снежный покров - Высота снежного покрова, см. При наведении курсора мыши на число - состояние снежного покрова и степень покрытия местности в баллах.